GW1727 Weather Reports


time (UTC)temp
C
wind
direction
speed
KPH
gust
KPH
rain 1hr
cm
rain 24hr
cm
rain mn
cm
humidity
%
barometer
mb
20260507114534 3 230 0.0 0.0 0.00 0.46 0.03 78 1015.7
20260507113033 3 228 0.0 0.0 0.00 0.46 0.03 78 1015.7
20260507111532 3 228 0.0 0.0 0.00 0.46 0.03 79 1015.7
20260507110029 3 226 0.0 0.0 0.00 0.46 0.03 79 1015.8
20260507104528 3 222 0.0 0.0 0.00 0.51 0.03 79 1016.1
20260507103031 3 220 0.0 0.0 0.00 0.51 0.03 79 1016.3
20260507101525 3 231 0.0 0.0 0.00 0.51 0.03 80 1016.5
20260507100022 2 228 0.0 0.0 0.00 0.51 0.03 80 1016.8
20260507094522 2 231 0.0 0.0 0.00 0.56 0.03 80 1017.0
20260507093020 2 228 0.0 0.0 0.00 0.56 0.03 80 1017.0
20260507091524 2 211 0.0 0.0 0.00 0.56 0.03 79 1017.2
20260507090016 3 219 0.0 0.0 0.00 0.56 0.03 79 1017.5
20260507084534 3 222 0.0 0.0 0.00 0.61 0.03 79 1017.6
20260507083013 3 227 0.0 0.0 0.00 0.61 0.03 79 1017.9
20260507081513 3 238 0.0 0.0 0.00 0.61 0.03 79 1018.1
20260507080009 3 233 0.0 0.0 0.00 0.61 0.03 80 1018.2
20260507074508 3 221 0.0 0.0 0.03 0.64 0.03 80 1018.4
20260507073006 3 222 0.0 0.0 0.03 0.64 0.03 80 1018.7
20260507071504 3 220 0.0 0.0 0.03 0.64 0.03 80 1018.8
20260507070002 3 222 0.0 0.0 0.03 0.64 0.03 81 1019.0
20260507064600 3 218 0.0 0.0 0.00 0.66 0.00 81 1019.3
20260507063058 3 206 0.0 0.0 0.00 0.66 0.00 81 1019.4
20260507061557 3 205 0.0 0.0 0.00 0.66 0.00 81 1019.6
20260507060101 3 237 0.0 0.0 0.00 0.66 0.00 81 1019.7
20260507054610 3 237 0.0 0.0 0.00 0.71 0.00 80 1020.0
20260507053103 3 237 0.0 0.0 0.00 0.71 0.00 80 1020.0
20260507051555 3 236 0.0 0.0 0.00 0.71 0.00 80 1020.1
20260507050050 4 218 0.0 0.0 0.00 0.71 0.00 79 1020.1
20260507044553 4 222 0.0 0.0 0.00 0.76 0.71 79 1020.2
20260507043045 4 212 0.0 0.0 0.00 0.76 0.71 79 1020.4
20260507041558 5 214 0.0 0.0 0.03 0.76 0.71 79 1020.5
20260507040044 5 197 0.0 0.0 0.03 0.76 0.71 79 1020.6
20260507034543 5 214 0.0 0.0 0.03 0.81 0.71 78 1020.4
20260507033043 5 235 0.0 0.0 0.03 0.81 0.71 77 1020.6
20260507031543 5 224 0.0 0.0 0.00 0.79 0.69 77 1020.5
20260507030041 5 227 0.0 0.0 0.00 0.79 0.69 77 1020.6
20260507024541 6 228 0.0 0.0 0.00 0.84 0.69 76 1020.5
20260507023041 6 226 0.0 0.0 0.00 0.84 0.69 75 1020.4
20260507021541 6 243 0.0 0.0 0.00 0.84 0.69 74 1020.4
20260507020054 7 240 0.0 0.0 0.00 0.84 0.69 73 1020.3
20260507014547 7 224 0.0 0.0 0.00 0.89 0.69 72 1020.3
20260507013045 8 221 0.0 0.0 0.00 0.89 0.69 71 1020.4
20260507011543 8 214 0.0 0.0 0.00 0.89 0.69 71 1020.4
20260507010044 8 241 0.0 0.0 0.00 0.89 0.69 69 1020.4
20260507004537 8 225 0.0 0.0 0.00 0.91 0.69 70 1020.4
20260507003037 8 234 0.0 0.0 0.03 0.91 0.69 70 1020.4
20260507001554 8 237 0.0 0.0 0.03 0.91 0.69 67 1020.3
20260507000041 8 226 0.0 0.0 0.03 0.91 0.69 67 1020.4
20260506234540 8 226 0.0 0.0 0.00 0.94 0.66 69 1020.5
20260506233039 9 225 0.0 0.0 0.03 0.94 0.66 67 1020.5
20260506231536 10 226 0.0 0.0 0.03 0.94 0.66 62 1020.5
20260506230033 9 213 0.0 0.0 0.03 0.94 0.66 63 1020.6
20260506224533 9 238 0.0 0.0 0.03 0.94 0.66 65 1020.5
20260506223030 9 311 0.0 0.0 0.00 0.91 0.64 65 1020.5
20260506221530 9 268 0.0 0.0 0.00 0.91 0.64 67 1020.7
20260506220031 9 239 0.0 0.0 0.03 0.91 0.64 66 1020.9
20260506214527 8 237 0.0 0.0 0.03 0.94 0.64 66 1021.0
20260506213026 8 229 0.0 0.0 0.03 0.94 0.64 67 1021.2
20260506211538 8 212 0.0 0.0 0.05 0.94 0.64 69 1021.3
20260506210032 8 228 0.0 0.0 0.03 0.91 0.61 69 1021.5
20260506204523 8 199 0.0 0.0 0.03 0.94 0.61 70 1021.7
20260506203018 7 173 0.0 0.0 0.03 0.94 0.61 71 1021.8
20260506201515 7 173 0.0 0.0 0.00 0.91 0.58 73 1021.9
20260506200014 6 174 0.0 0.0 0.00 0.91 0.58 75 1021.9
20260506194514 6 183 0.0 0.0 0.03 0.94 0.58 75 1022.0
20260506193015 6 239 0.0 0.0 0.03 0.94 0.58 74 1022.2
20260506191512 7 162 0.0 0.0 0.05 0.94 0.58 72 1022.2
20260506190008 7 150 0.0 0.0 0.05 0.94 0.58 72 1022.4
20260506184506 7 150 0.0 0.0 0.03 0.97 0.56 73 1022.5
20260506183005 7 340 0.0 0.0 0.03 0.97 0.56 72 1022.6
20260506181510 7 198 0.0 0.0 0.03 0.94 0.53 73 1022.7
20260506180002 6 182 0.0 0.0 0.03 0.94 0.53 74 1022.8
20260506174600 6 243 0.0 0.0 0.03 0.97 0.53 74 1022.9
20260506173125 6 195 0.0 0.0 0.05 0.97 0.53 76 1023.0
20260506171557 6 195 0.0 0.0 0.03 0.94 0.51 76 1023.1
20260506170105 5 198 0.0 0.0 0.03 0.94 0.51 76 1023.2
20260506164552 5 192 0.0 0.0 0.03 0.94 0.48 76 1023.1
20260506163055 5 193 0.0 0.0 0.03 0.94 0.48 76 1023.0
20260506161548 5 166 0.0 0.0 0.05 0.94 0.48 76 1022.9
20260506160047 5 166 0.0 0.0 0.05 0.94 0.48 77 1022.7
20260506154604 5 152 0.0 0.0 0.03 0.94 0.46 78 1022.4
20260506153043 5 37 0.0 0.0 0.05 0.94 0.46 80 1022.1
20260506151541 5 332 0.0 0.0 0.03 0.91 0.43 81 1022.3
20260506150039 5 341 0.0 0.0 0.05 0.91 0.43 81 1022.4
20260506144543 4 287 0.0 0.0 0.05 0.94 0.43 81 1022.3
20260506143036 4 269 0.0 0.0 0.03 0.91 0.41 82 1022.3
20260506141535 4 272 0.0 0.0 0.05 0.91 0.41 82 1022.3
20260506140036 4 269 0.0 0.0 0.03 0.89 0.38 82 1022.2
20260506134532 3 268 0.0 0.0 0.05 0.91 0.38 82 1022.2
20260506133038 3 268 0.0 0.0 0.05 0.91 0.38 83 1022.0
20260506131534 3 268 0.0 0.0 0.03 0.89 0.36 83 1021.8
20260506130028 3 266 0.0 0.0 0.03 0.86 0.33 82 1021.7
20260506124526 3 265 0.0 0.0 0.05 0.89 0.33 83 1021.4
20260506123026 3 265 0.0 0.0 0.05 0.89 0.33 83 1021.4
20260506121523 3 264 0.0 0.0 0.05 0.89 0.33 83 1021.1
20260506120023 3 264 0.0 0.0 0.03 0.86 0.30 82 1020.9